Find Starlink 32118

NORAD ID: 60280 Int'l Des: 2024-132 Owner: SPXS Country: US Constellation: starlink operational
LEOCIRCULAR

Current View

Loading 3D Globe...

About Starlink 32118

Starlink 32118 (NORAD 60280) is a starlink constellation satellite (v2 mini) launched Jul 28, 2024 by SPXS of US. It operates in LEO, CIRCULAR orbit with a mass of 730.00 kg.

About Starlink 32118

Description loading...

Upcoming Passes

Passes for default location (London). Set your location on the main map for personalized predictions.

Altitude History

Loading altitude history...

Two-Line Element Set

1 60280U 24132C 26174.44109448 -.00000163 00000-0 66201-5 0 9993
2 60280 53.1600 281.0670 0001298 88.3308 271.7841 15.30199636107750
Epoch: Jun 23, 2026 • Age: 51 hours

Current Status

Altitude 475.2 km
Velocity 7.63 km/s
Sub-Earth Point 8.11°N, 30.88°W
Launch Date Jul 28, 2024
Age 1.9 years
Type internet

Technical Details

Classification Payload
Mass 730.00 kg
Dry Mass 700.00 kg
Total Mass 730.00 kg
Length 0.30 m
Diameter 4.10 m
Span 29.00 m
Shape Box + pan
Manufacturer SPXS
Bus Type Starlink V2M
Phase Status In Orbit
Owner/State SPXS/US

Most Searched